TimeEDT,TemperatureF,Dew PointF,Humidity,Sea Level PressureIn,VisibilityMPH,Wind Direction,Wind SpeedMPH,Gust SpeedMPH,PrecipitationIn,Events,Conditions,WindDirDegrees,DateUTC
12:54 AM,32.0,30.0,92,30.18,-9999.0,North,-9999.0,-,N/A,,Unknown,0,2012-10-24 04:54:00
1:54 AM,30.9,28.9,92,30.18,-9999.0,North,-9999.0,-,N/A,,Unknown,0,2012-10-24 05:54:00
2:54 AM,30.0,28.0,92,30.19,-9999.0,North,-9999.0,-,N/A,,Unknown,0,2012-10-24 06:54:00
3:54 AM,30.0,28.0,92,30.20,-9999.0,North,-9999.0,-,N/A,,Unknown,0,2012-10-24 07:54:00
4:54 AM,28.9,28.0,96,30.22,-9999.0,North,-9999.0,-,N/A,,Unknown,0,2012-10-24 08:54:00
5:54 AM,28.0,27.0,96,30.22,-9999.0,North,-9999.0,-,N/A,,Unknown,0,2012-10-24 09:54:00
6:54 AM,28.0,26.1,92,30.24,-9999.0,North,-9999.0,-,N/A,,Unknown,0,2012-10-24 10:54:00
7:54 AM,28.0,26.1,92,30.25,-9999.0,North,-9999.0,-,N/A,,Unknown,0,2012-10-24 11:54:00
8:54 AM,30.0,28.0,92,30.26,-9999.0,North,-9999.0,-,N/A,,Unknown,0,2012-10-24 12:54:00
9:54 AM,35.1,30.0,82,30.25,-9999.0,North,-9999.0,-,N/A,,Unknown,0,2012-10-24 13:54:00
10:54 AM,41.0,32.0,70,30.22,-9999.0,North,-9999.0,-,N/A,,Unknown,0,2012-10-24 14:54:00
11:54 AM,48.0,30.9,52,30.20,-9999.0,North,-9999.0,-,N/A,,Unknown,0,2012-10-24 15:54:00
12:54 PM,52.0,23.0,32,30.17,-9999.0,North,-9999.0,-,N/A,,Unknown,0,2012-10-24 16:54:00
1:54 PM,55.0,23.0,29,30.15,-9999.0,North,-9999.0,-,N/A,,Unknown,0,2012-10-24 17:54:00
2:54 PM,55.0,23.0,29,30.14,-9999.0,North,-9999.0,-,N/A,,Unknown,0,2012-10-24 18:54:00
3:54 PM,57.0,25.0,29,30.13,-9999.0,North,-9999.0,-,N/A,,Unknown,0,2012-10-24 19:54:00
4:54 PM,57.0,26.1,30,30.14,-9999.0,North,-9999.0,-,N/A,,Unknown,0,2012-10-24 20:54:00
5:54 PM,51.1,28.9,43,30.17,-9999.0,North,-9999.0,-,N/A,,Unknown,0,2012-10-24 21:54:00
6:54 PM,48.0,32.0,54,30.19,-9999.0,North,-9999.0,-,N/A,,Unknown,0,2012-10-24 22:54:00
7:54 PM,45.0,33.1,63,30.20,-9999.0,North,-9999.0,-,N/A,,Unknown,0,2012-10-24 23:54:00
8:54 PM,42.1,34.0,73,30.22,-9999.0,North,-9999.0,-,N/A,,Unknown,0,2012-10-25 00:54:00
9:54 PM,41.0,34.0,76,30.22,-9999.0,North,-9999.0,-,N/A,,Unknown,0,2012-10-25 01:54:00
10:54 PM,42.1,34.0,73,30.22,-9999.0,North,-9999.0,-,N/A,,Unknown,0,2012-10-25 02:54:00
11:54 PM,43.0,35.1,74,30.22,-9999.0,North,-9999.0,-,N/A,,Unknown,0,2012-10-25 03:54:00